Location: Milton Keynes
(52.0316°N, 0.7531°W)
Time: 00:31:05
(UTC+01:00)

GENESIS II - Visible Passes

Search period start: 22 October 2019 00:00
Search period end: 31 October 2019 23:00
Orbit: 479 x 550 km, 64.5° (Epoch: 20 October)

Date Brightness Start Highest point End Pass type
(mag) Time Alt. Az. Time Alt. Az. Time Alt. Az.
22 Oct 5.2 05:00:23 43° NNE 05:00:23 43° NNE 05:03:24 10° NE visible
22 Oct 6.0 06:35:21 12° WNW 06:37:48 19° NNW 06:40:50 10° NNE visible
23 Oct 5.9 04:44:59 31° NNE 04:44:59 31° NNE 04:47:19 10° NE visible
23 Oct 6.1 06:19:57 15° NW 06:21:44 19° NNW 06:24:46 10° NNE visible
24 Oct 6.4 04:29:33 23° NNE 04:29:33 23° NNE 04:31:15 10° NE visible
24 Oct 6.0 06:04:31 17° NW 06:05:40 19° NNW 06:08:41 10° NNE visible
25 Oct 6.9 04:14:04 17° NNE 04:14:04 17° NNE 04:15:10 10° NE visible
25 Oct 6.1 05:49:02 19° NNW 05:49:36 19° NNW 05:52:37 10° NNE visible
26 Oct 7.3 03:58:34 13° NE 03:58:34 13° NE 03:59:06 10° NE visible
26 Oct 6.2 05:33:33 19° NNW 05:33:33 19° NNW 05:36:32 10° NNE visible
26 Oct 6.5 07:10:15 10° NNW 07:12:39 15° N 07:15:02 10° NE visible
27 Oct 6.3 04:18:01 18° N 04:18:01 18° N 04:20:27 10° NNE visible
27 Oct 6.6 05:54:10 10° NNW 05:56:35 15° N 05:58:59 10° NE visible
28 Oct 6.5 04:02:29 17° N 04:02:29 17° N 04:04:22 10° NNE visible
28 Oct 6.6 05:38:06 10° NNW 05:40:30 15° N 05:42:55 10° NE visible
29 Oct 6.8 03:46:56 15° N 03:46:56 15° N 03:48:18 10° NNE visible
29 Oct 6.6 05:22:02 10° NNW 05:24:26 15° N 05:26:51 10° NE visible
30 Oct 7.1 03:31:23 13° NNE 03:31:23 13° NNE 03:32:12 10° NNE visible
30 Oct 6.6 05:06:20 11° NNW 05:08:22 15° N 05:10:47 10° NE visible
31 Oct 7.4 03:15:49 11° NNE 03:15:49 11° NNE 03:16:08 10° NNE visible
31 Oct 6.6 04:50:47 13° NNW 04:52:17 15° N 04:54:42 10° NE visible
